This demonstration page uses our WeatherBlox Daily Observations layout. Learn more.

Left ArrowRight Arrow

Hourly Observations for May 11, 2015

Temp ( °F °C ) Dew Point ( °F °C ) Humidity (%) Winds ( mph kmh ) Pressure ( in mb ) Visibility ( mi km ) Precip ( " mm )
12:16 am 00:16 Mostly Cloudy 68 20 55 13 64 64 WSW 30 48 30.09 1019 10 16.0934 N/A
12:35 am 00:35 Clear 68 20 57 14 69 69 WSW 20 31 30.09 1019 10 16.0934 N/A
12:56 am 00:56 Clear 66 19 57 14 73 73 WSW 14 22 30.09 1019 10 16.0934 N/A
1:16 am 01:16 Clear 66 19 59 15 78 78 SW 12 19 30.09 1019 10 16.0934 N/A
1:36 am 01:36 Mostly Cloudy 66 19 66 19 100 100 SSW 6 9 30.06 1018 10 16.0934 N/A
1:56 am 01:56 Mostly Cloudy 66 19 N/A N/A S 5 7 30.06 1018 10 16.0934 N/A
2:16 am 02:16 Partly Cloudy 64 18 N/A N/A S 7 11 30.03 1017 10 16.0934 N/A
2:36 am 02:36 Clear 64 18 N/A N/A S 3 6 30.03 1017 10 16.0934 N/A
2:56 am 02:56 Clear 63 17 N/A N/A Calm 30 1016 10 16.0934 N/A
3:16 am 03:16 Clear 63 17 N/A N/A Calm 30 1016 10 16.0934 N/A
3:36 am 03:36 Clear 63 17 N/A N/A Calm 30 1016 10 16.0934 N/A
3:56 am 03:56 Clear 63 17 N/A N/A Calm 30 1016 10 16.0934 N/A
4:16 am 04:16 Clear 61 16 N/A N/A Calm 29.97 1015 10 16.0934 N/A
4:36 am 04:36 Clear 63 17 N/A N/A Calm 30 1016 7 11.26538 N/A
4:56 am 04:56 undefined 61 16 N/A N/A SSE 6 9 29.97 1015 N/A N/A
5:16 am 05:16 Clear 61 16 N/A N/A S 6 9 29.97 1015 10 16.0934 N/A
5:36 am 05:36 Clear 61 16 N/A N/A S 6 9 29.97 1015 7 11.26538 N/A
5:56 am 05:56 undefined 61 16 N/A N/A S 6 9 29.97 1015 N/A N/A
6:16 am 06:16 Clear 61 16 N/A N/A SSE 7 11 29.97 1015 7 11.26538 N/A
6:36 am 06:36 Sunny 61 16 N/A N/A SSE 7 11 29.97 1015 7 11.26538 N/A
6:56 am 06:56 Sunny 63 17 N/A N/A SSE 8 13 29.97 1015 7 11.26538 N/A
7:16 am 07:16 Sunny 63 17 N/A N/A SSE 8 13 29.97 1015 10 16.0934 N/A
7:36 am 07:36 Sunny 64 18 N/A N/A S 9 15 29.97 1015 10 16.0934 N/A
7:56 am 07:56 Sunny 63 17 N/A N/A SSE 9 15 30 1016 10 16.0934 N/A
8:16 am 08:16 Sunny 64 18 N/A N/A S 9 15 30 1016 10 16.0934 N/A
8:36 am 08:36 Sunny 64 18 N/A N/A S 9 15 30 1016 10 16.0934 N/A
8:56 am 08:56 Partly Cloudy 64 18 N/A N/A S 9 15 30 1016 10 16.0934 N/A
9:16 am 09:16 Partly Cloudy 66 19 N/A N/A S 10 17 30 1016 10 16.0934 N/A
9:36 am 09:36 Sunny 68 20 N/A N/A S 12 19 29.97 1015 10 16.0934 N/A
9:56 am 09:56 Sunny 70 21 57 14 64 64 SSE 12 19 29.94 1014 10 16.0934 N/A
10:16 am 10:16 Sunny 72 22 55 13 57 57 S 14 22 29.94 1014 10 16.0934 N/A
10:36 am 10:36 Sunny 72 22 55 13 57 57 SSE 9 15 29.94 1014 10 16.0934 N/A
10:56 am 10:56 Sunny 73 23 55 13 53 53 SSE 13 20 29.94 1014 10 16.0934 N/A
11:16 am 11:16 Sunny 73 23 54 12 50 50 S 14 22 29.94 1014 10 16.0934 N/A
11:36 am 11:36 Sunny 77 25 52 11 42 42 S 16 26 29.91 1013 10 16.0934 N/A
11:56 am 11:56 Sunny 79 26 52 11 39 39 S 21 33 29.91 1013 10 16.0934 N/A
12:16 pm 12:16 Sunny 81 27 52 11 37 37 S 17 28 29.91 1013 10 16.0934 N/A
12:36 pm 12:36 Mostly Cloudy 73 23 59 15 61 61 SSW 13 20 29.91 1013 1.25 2.011675 N/A
12:56 pm 12:56 Partly Cloudy 75 24 63 17 65 65 S 15 24 29.88 1012 10 16.0934 N/A
1:16 pm 13:16 Sunny 79 26 59 15 51 51 S 16 26 29.88 1012 10 16.0934 N/A
1:36 pm 13:36 Sunny 79 26 57 14 48 48 SSW 20 31 29.88 1012 10 16.0934 N/A
1:56 pm 13:56 Sunny 79 26 55 13 45 45 SSW 17 28 29.88 1012 10 16.0934 N/A
2:16 pm 14:16 Mostly Cloudy 73 23 61 16 65 65 WSW 18 30 29.88 1012 5 8.0467 N/A
2:36 pm 14:36 Cloudy 72 22 70 21 94 94 SW 12 19 29.88 1012 7 11.26538 N/A
2:56 pm 14:56 Partly Cloudy 72 22 N/A N/A SW 10 17 29.88 1012 10 16.0934 N/A
3:16 pm 15:16 Sunny 73 23 N/A N/A SSW 10 17 29.88 1012 10 16.0934 N/A
3:36 pm 15:36 Sunny 75 24 66 19 74 74 SW 16 26 29.88 1012 10 16.0934 N/A
3:56 pm 15:56 Partly Cloudy 75 24 59 15 57 57 SW 17 28 29.85 1011 10 16.0934 N/A
4:16 pm 16:16 Partly Cloudy 73 23 61 16 65 65 WSW 17 28 29.88 1012 10 16.0934 N/A
4:36 pm 16:36 Partly Cloudy 73 23 57 14 57 57 WSW 25 41 29.88 1012 10 16.0934 N/A
4:56 pm 16:56 Sunny 72 22 54 12 53 53 WSW 22 35 29.88 1012 10 16.0934 N/A
5:16 pm 17:16 Sunny 72 22 54 12 53 53 WSW 21 33 29.85 1011 10 16.0934 N/A
5:36 pm 17:36 Partly Cloudy 72 22 55 13 57 57 WSW 14 22 29.88 1012 10 16.0934 N/A
5:56 pm 17:56 Partly Cloudy 72 22 55 13 57 57 SW 18 30 29.88 1012 10 16.0934 N/A
6:16 pm 18:16 Partly Cloudy 72 22 54 12 53 53 WSW 17 28 29.88 1012 10 16.0934 N/A
6:36 pm 18:36 Partly Cloudy 72 22 50 10 47 47 WSW 25 41 29.88 1012 10 16.0934 N/A
6:56 pm 18:56 Partly Cloudy 72 22 48 9 44 44 WSW 22 35 29.88 1012 10 16.0934 N/A
7:16 pm 19:16 Partly Cloudy 72 22 50 10 47 47 WSW 18 30 29.88 1012 10 16.0934 N/A
7:36 pm 19:36 Partly Cloudy 70 21 52 11 53 53 WSW 17 28 29.88 1012 10 16.0934 N/A
7:56 pm 19:56 Partly Cloudy 72 22 52 11 50 50 WSW 17 28 29.88 1012 10 16.0934 N/A
8:16 pm 20:16 Partly Cloudy 70 21 54 12 57 57 WSW 16 26 29.88 1012 10 16.0934 N/A
8:36 pm 20:36 Partly Cloudy 68 20 54 12 60 60 WSW 13 20 29.88 1012 10 16.0934 N/A
8:56 pm 20:56 Partly Cloudy 68 20 54 12 60 60 WSW 10 17 29.94 1014 10 16.0934 N/A
9:16 pm 21:16 Clear 68 20 55 13 64 64 WSW 12 19 29.94 1014 10 16.0934 N/A
9:36 pm 21:36 Clear 66 19 55 13 68 68 WSW 14 22 29.94 1014 10 16.0934 N/A
9:56 pm 21:56 Clear 66 19 57 14 73 73 SW 10 17 29.94 1014 10 16.0934 N/A
10:16 pm 22:16 Clear 66 19 57 14 73 73 SW 9 15 29.97 1015 10 16.0934 N/A
10:36 pm 22:36 Clear 66 19 57 14 73 73 SW 10 17 29.97 1015 10 16.0934 N/A
10:56 pm 22:56 Clear 64 18 57 14 78 78 SW 9 15 29.97 1015 10 16.0934 N/A
11:16 pm 23:16 Partly Cloudy 66 19 57 14 73 73 SW 10 17 29.97 1015 10 16.0934 N/A
11:36 pm 23:36 Partly Cloudy 64 18 59 15 83 83 WSW 13 20 29.97 1015 10 16.0934 N/A
11:56 pm 23:56 Partly Cloudy 64 18 59 15 83 83 W 13 20 29.97 1015 10 16.0934 N/A

Powered by AerisWeather